NETSAT-2

Last updated on Sun Dec 14 2025 00:03:50 GMT+0000 (Coordinated Universal Time)

1 46507U 20068X 25347.21755465 .00032031 00000+0 87675-3 0 9998 2 46507 97.8613 336.0188 0002936 319.2858 40.8166 15.37279758287087
UTC large
Height (km)
Speed (km/s)
/
Latitude / Longitude
Inclination (degrees)
Orbital Period (minutes)
Azimuth
Elevation
Range (km)
Doppler Factor

Next 0 passes for location: London (51.5072 / 0.1276)

Sorry there are no passes over London.